FW1708 Weather Reports


time (UTC)temp
C
wind
direction
speed
KPH
gust
KPH
rain 1hr
cm
rain 24hr
cm
rain mn
cm
humidity
%
barometer
mb
20260505171530 26 219 3.2 14.5 0.00 0.00 0.00 47 1010.7
20260505170024 26 207 1.6 8.0 0.00 0.00 0.00 49 1010.8
20260505164532 26 253 3.2 17.7 0.00 0.00 0.00 51 1011.0
20260505163023 26 279 4.8 14.5 0.00 0.00 0.00 48 1011.0
20260505161518 26 128 1.6 11.3 0.00 0.00 0.00 48 1011.0
20260505153020 25 256 6.4 17.7 0.00 0.00 0.00 49 1011.5
20260505151510 25 184 4.8 12.9 0.00 0.00 0.00 48 1011.7
20260505140112 21 257 4.8 14.5 0.00 0.00 0.00 56 1012.1
20260505124539 18 268 4.8 14.5 0.00 0.00 0.00 63 1012.4
20260505123059 18 236 3.2 14.5 0.00 0.00 0.00 64 1012.1
20260505121535 18 240 1.6 11.3 0.00 0.00 0.00 65 1012.1
20260505120043 17 259 3.2 9.7 0.00 0.00 0.00 67 1012.1
20260505114539 17 270 4.8 12.9 0.00 0.00 0.00 67 1012.0
20260505113025 16 268 1.6 9.7 0.00 0.00 0.00 69 1012.1
20260505111524 16 268 1.6 8.0 0.00 0.00 0.00 71 1011.8
20260505101521 15 246 1.6 9.7 0.00 0.00 0.00 71 1011.6
20260505100029 15 224 0.0 3.2 0.00 0.00 0.00 72 1011.3
20260505094519 15 244 1.6 4.8 0.00 0.00 0.00 72 1011.2
20260505093020 15 277 3.2 9.7 0.00 0.00 0.00 72 1011.1
20260505091528 15 209 1.6 4.8 0.00 0.00 0.00 73 1011.2
20260505090036 14 253 0.0 4.8 0.00 0.00 0.00 76 1011.2
20260505084519 15 255 0.0 1.6 0.00 0.00 0.00 73 1011.1
20260505083013 15 255 0.0 3.2 0.00 0.00 0.00 72 1011.3
20260505081511 15 255 0.0 3.2 0.00 0.00 0.00 71 1011.3
20260505080009 16 256 0.0 0.0 0.00 0.00 0.00 70 1011.2
20260505074510 16 243 0.0 4.8 0.00 0.00 0.00 69 1011.3
20260505073014 16 262 0.0 3.2 0.00 0.00 0.00 69 1011.3
20260505071509 16 261 0.0 4.8 0.00 0.00 0.00 69 1011.4
20260505070011 16 240 1.6 9.7 0.00 0.00 0.00 69 1011.2
20260505064506 16 271 0.0 4.8 0.00 0.00 0.00 69 1011.2
20260505063007 16 264 3.2 14.5 0.00 0.00 0.00 68 1011.3
20260505061510 16 257 0.0 11.3 0.00 0.00 0.00 68 1011.1
20260505060013 16 300 1.6 9.7 0.00 0.00 0.00 67 1011.3
20260505054504 16 229 3.2 8.0 0.00 0.00 0.00 67 1011.2
20260505053004 16 212 1.6 6.4 0.00 0.00 0.00 67 1011.3
20260505051503 16 214 1.6 6.4 0.00 0.00 0.00 66 1011.2
20260505050128 16 175 1.6 4.8 0.00 0.00 0.00 66 1011.3
20260505041606 16 209 1.6 9.7 0.00 0.00 0.00 61 1011.4
20260505040059 16 214 0.0 4.8 0.00 0.00 0.00 59 1011.2
20260505034553 17 213 1.6 4.8 0.00 0.00 0.00 56 1011.1
20260505033053 17 165 0.0 6.4 0.00 0.00 0.00 55 1011.1
20260505031553 17 167 0.0 4.8 0.00 0.00 0.00 54 1011.1
20260505030052 17 209 0.0 3.2 0.00 0.00 0.00 53 1011.2
20260505024552 17 209 1.6 4.8 0.00 0.00 0.00 54 1011.3
20260505023054 17 200 0.0 3.2 0.00 0.00 0.00 54 1011.4
20260505021551 17 180 0.0 3.2 0.00 0.00 0.00 54 1011.6
20260505020050 17 169 1.6 6.4 0.00 0.00 0.00 55 1011.5
20260505014604 17 157 0.0 3.2 0.00 0.00 0.00 54 1011.5
20260505013051 17 154 0.0 3.2 0.00 0.00 0.00 55 1011.5
20260505011549 16 254 0.0 0.0 0.00 0.00 0.00 58 1011.4
20260505010049 16 254 0.0 0.0 0.00 0.00 0.00 59 1011.1
20260505004548 17 266 0.0 0.0 0.00 0.00 0.00 57 1010.9
20260505003048 18 264 0.0 0.0 0.00 0.00 0.00 53 1010.8
20260505001601 19 263 0.0 0.0 0.00 0.00 0.00 48 1010.7
20260505000104 20 263 0.0 9.7 0.00 0.00 0.00 46 1010.6
20260504234604 20 248 0.0 6.4 0.00 0.00 0.00 44 1010.5
20260504233050 21 259 4.8 14.5 0.00 0.00 0.00 43 1010.4
20260504231545 21 263 6.4 12.9 0.00 0.00 0.00 41 1010.4
20260504230045 21 259 4.8 14.5 0.00 0.00 0.00 41 1010.4
20260504224558 21 233 1.6 17.7 0.00 0.00 0.00 40 1010.3
20260504223045 21 248 3.2 12.9 0.00 0.00 0.00 40 1010.5
20260504221543 21 285 6.4 16.1 0.00 0.00 0.00 40 1010.5
20260504220041 22 313 6.4 16.1 0.00 0.00 0.00 41 1010.6
20260504214540 22 229 1.6 12.9 0.00 0.00 0.00 41 1010.8
20260504213055 21 261 8.0 16.1 0.00 0.00 0.00 41 1010.6
20260504211540 22 252 4.8 12.9 0.00 0.00 0.00 40 1010.7
20260504210039 22 263 6.4 16.1 0.00 0.00 0.00 40 1010.6
20260504204537 22 218 4.8 14.5 0.00 0.00 0.00 41 1010.7
20260504203037 21 150 1.6 17.7 0.00 0.00 0.00 40 1010.8
20260504201536 22 240 4.8 12.9 0.00 0.00 0.00 41 1011.0
20260504200034 21 255 6.4 17.7 0.00 0.00 0.00 42 1011.0
20260504194534 21 262 6.4 16.1 0.00 0.00 0.00 42 1011.2
20260504193035 21 248 4.8 12.9 0.00 0.00 0.00 41 1011.2
20260504191529 21 248 8.0 16.1 0.00 0.00 0.00 40 1011.3
20260504190028 21 234 4.8 14.5 0.00 0.00 0.00 41 1011.5
20260504184524 21 265 3.2 17.7 0.00 0.00 0.00 41 1011.8
20260504183025 21 287 9.7 16.1 0.00 0.00 0.00 40 1011.9
20260504181522 20 246 6.4 14.5 0.00 0.00 0.00 43 1012.1
20260504180020 20 255 11.3 22.5 0.00 0.00 0.00 40 1012.2
20260504174516 20 235 3.2 17.7 0.00 0.00 0.00 42 1012.5
20260504173025 20 254 4.8 17.7 0.00 0.00 0.00 41 1012.7